カタログに戻る

COSMOS 1190

運用中ナビゲーションLEO
NORAD 11869·PAYLOAD·🇷🇺 Russia

打ち上げ Jul 1, 1980 から Plesetsk Cosmodrome

Loading…

次のパス (今後24時間)

TLE

最新Source: Space-Track

元期: Sep 14, 2026, 07:42 UTC

1 11869U 80056A   26257.32151113  .00000085  00000-0  39193-4 0  9995
2 11869  74.0442 232.8642 0012540  49.6806 310.5439 14.34674677393076

AllMySatでCOSMOS 1190をリアルタイム追跡

Download on the App Store